Flag for Austria Weather past 2 weeks in Amstetten, Lower Austria, Austria

Now
67 °F

Passing clouds.


Feels Like: 67 °F
Forecast: 56 / 94 °F
Wind: N/A

Location: Linz / Hoersching-Flughafen

Current Time: Aug 29, 2015 at 2:35:59 AM

Latest Report: Aug 29, 2015 at 2:00 AM


Visibility: 28 mi

Pressure: 30.14 "Hg

Humidity: 70%

Dew point: 57 °F

Location of AmstettenLocation

Historic Weather in Amstetten — Graph

°F

Amstetten temperature yesterday

Maximum temperature yesterday: 90 °F (at 3:00 PM)
Minimum temperature yesterday: 58 °F (at 7:00 AM)
Average temperature yesterday: 75 °F

Past Weeks' High & Low Weather Summary

 TemperatureHumidityPressure
High94 °F (Aug 14, 5:00 PM)96% (Aug 21, 12:00 AM)30.27 "Hg (Aug 21, 12:00 AM)
Low46 °F (Aug 26, 6:00 AM)17% (Aug 26, 4:00 PM)29.62 "Hg (Aug 14, 7:00 PM)
Average68 °F65%29.96 "Hg
* Reported Aug 14 1:00 AM — Aug 29 1:00 AM, Amstetten, Weather by CustomWeather, © 2015

Note: Actual official high and low records may vary slightly from our data, if they occured in-between our weather recording intervals... More about our weather records

Advertising

Amstetten weather history for previous 24 hours

 ConditionsComfort  
Time TempWeatherWind HumidityBarometerVisibility
1:00 AM
Sat, Aug 29
70 °FMild.N/A63%30.13 "Hg25 mi
12:00 AM71 °FOvercast.N/A61%30.12 "Hg28 mi
11:00 PM
Fri, Aug 28
73 °FPassing clouds.N/A57%30.10 "Hg22 mi
10:00 PMN/APassing clouds.9 mphN/AN/A11 mi
9:00 PMN/APassing clouds.15 mphN/AN/A1 mi
8:00 PM85 °FPassing clouds.N/A34%30.03 "Hg28 mi
6:00 PM89 °FPassing clouds.N/A30%30.02 "Hg22 mi
5:00 PM89 °FScattered clouds.3 mph31%30.02 "Hg28 mi
4:00 PM89 °FScattered clouds.5 mph30%30.02 "Hg22 mi
3:00 PM90 °FScattered clouds.6 mph28%30.02 "Hg25 mi
2:00 PM87 °FScattered clouds.3 mph33%30.04 "Hg19 mi
1:00 PM85 °FPartly sunny.5 mph35%30.05 "Hg18 mi
12:00 PM83 °FScattered clouds.5 mph41%30.05 "Hg22 mi
11:00 AM79 °FScattered clouds.5 mph47%30.05 "Hg17 mi
10:00 AM72 °FScattered clouds.N/A63%30.06 "Hg17 mi
9:00 AMN/APassing clouds.9 mphN/AN/A16 mi
8:00 AM62 °FScattered clouds.N/A81%30.04 "Hg25 mi
7:00 AM58 °FScattered clouds.N/A88%30.01 "Hg15 mi
5:00 AM58 °FPassing clouds.N/A86%29.98 "Hg17 mi
4:00 AM60 °FPassing clouds.N/A83%29.96 "Hg16 mi
3:00 AM60 °FCool.N/A84%29.94 "Hg22 mi
2:00 AM63 °FMild.N/A77%29.93 "Hg25 mi
Weather by CustomWeather, © 2015

See weather overviewHow to use our weather pages